"Date","Average Accumulated Water Year PPT (in)","Average SWE (in)"
10/01/1981,0.000,0.000
10/02/1981,0.009,0.000
10/03/1981,0.009,0.000
10/04/1981,0.444,0.000
10/05/1981,0.633,0.001
10/06/1981,0.634,0.001
10/07/1981,0.635,0.000
10/08/1981,0.971,0.000
10/09/1981,0.976,0.000
10/10/1981,0.997,0.000
10/11/1981,1.185,0.000
10/12/1981,1.420,0.004
10/13/1981,1.768,0.028
10/14/1981,1.825,0.028
10/15/1981,1.826,0.025
10/16/1981,2.386,0.052
10/17/1981,2.429,0.049
10/18/1981,2.429,0.042
10/19/1981,2.429,0.034
10/20/1981,2.429,0.025
10/21/1981,2.429,0.017
10/22/1981,2.429,0.015
10/23/1981,2.429,0.013
10/24/1981,2.429,0.010
10/25/1981,2.429,0.009
10/26/1981,2.429,0.008
10/27/1981,2.429,0.005
10/28/1981,2.429,0.003
10/29/1981,2.737,0.006
10/30/1981,2.814,0.014
10/31/1981,2.815,0.014
11/01/1981,2.815,0.012
11/02/1981,2.826,0.008
11/03/1981,2.826,0.005
11/04/1981,2.826,0.004
11/05/1981,2.826,0.003
11/06/1981,2.854,0.003
11/07/1981,2.884,0.002
11/08/1981,2.889,0.002
11/09/1981,2.889,0.002
11/10/1981,2.889,0.002
11/11/1981,2.889,0.002
11/12/1981,2.889,0.002
11/13/1981,2.916,0.001
11/14/1981,2.951,0.001
11/15/1981,2.952,0.001
11/16/1981,2.968,0.001
11/17/1981,2.968,0.001
11/18/1981,3.000,0.001
11/19/1981,3.003,0.003
11/20/1981,3.003,0.002
11/21/1981,3.003,0.002
11/22/1981,3.003,0.001
11/23/1981,3.034,0.002
11/24/1981,3.052,0.002
11/25/1981,3.086,0.003
11/26/1981,3.090,0.008
11/27/1981,3.112,0.032
11/28/1981,3.112,0.033
11/29/1981,3.118,0.042
11/30/1981,3.142,0.064
12/01/1981,3.142,0.064
12/02/1981,3.142,0.061
12/03/1981,3.142,0.035
12/04/1981,3.142,0.029
12/05/1981,3.142,0.025
12/06/1981,3.142,0.011
12/07/1981,3.142,0.003
12/08/1981,3.142,0.002
12/09/1981,3.142,0.001
12/10/1981,3.142,0.001
12/11/1981,3.142,0.001
12/12/1981,3.142,0.001
12/13/1981,3.146,0.001
12/14/1981,3.146,0.001
12/15/1981,3.159,0.001
12/16/1981,3.165,0.001
12/17/1981,3.166,0.002
12/18/1981,3.206,0.034
12/19/1981,3.324,0.117
12/20/1981,3.358,0.053
12/21/1981,3.453,0.011
12/22/1981,3.485,0.025
12/23/1981,3.486,0.026
12/24/1981,3.489,0.031
12/25/1981,3.520,0.072
12/26/1981,3.521,0.073
12/27/1981,3.919,0.550
12/28/1981,3.924,0.555
12/29/1981,3.934,0.561
12/30/1981,4.002,0.517
12/31/1981,4.120,0.620
01/01/1982,4.221,0.729
01/02/1982,4.246,0.750
01/03/1982,4.261,0.760
01/04/1982,4.263,0.762
01/05/1982,4.303,0.790
01/06/1982,4.347,0.819
01/07/1982,4.347,0.819
01/08/1982,4.347,0.819
01/09/1982,4.347,0.819
01/10/1982,4.347,0.819
01/11/1982,4.375,0.844
01/12/1982,4.416,0.912
01/13/1982,4.416,0.912
01/14/1982,4.416,0.912
01/15/1982,4.416,0.912
01/16/1982,4.416,0.899
01/17/1982,4.416,0.833
01/18/1982,4.416,0.645
01/19/1982,4.416,0.645
01/20/1982,4.416,0.645
01/21/1982,4.539,0.814
01/22/1982,4.550,0.833
01/23/1982,4.550,0.833
01/24/1982,4.550,0.786
01/25/1982,4.550,0.709
01/26/1982,4.550,0.622
01/27/1982,4.584,0.514
01/28/1982,4.584,0.515
01/29/1982,4.669,0.629
01/30/1982,4.670,0.630
01/31/1982,4.671,0.631
02/01/1982,4.671,0.631
02/02/1982,4.672,0.633
02/03/1982,4.818,0.834
02/04/1982,4.823,0.843
02/05/1982,4.826,0.845
02/06/1982,4.826,0.845
02/07/1982,4.827,0.846
02/08/1982,4.858,0.865
02/09/1982,4.858,0.865
02/10/1982,4.858,0.865
02/11/1982,4.860,0.867
02/12/1982,4.860,0.867
02/13/1982,4.861,0.868
02/14/1982,4.872,0.860
02/15/1982,4.878,0.537
02/16/1982,4.905,0.403
02/17/1982,4.949,0.353
02/18/1982,4.949,0.336
02/19/1982,4.949,0.323
02/20/1982,4.949,0.292
02/21/1982,4.949,0.248
02/22/1982,4.949,0.200
02/23/1982,5.001,0.183
02/24/1982,5.001,0.182
02/25/1982,5.001,0.181
02/26/1982,5.001,0.178
02/27/1982,5.001,0.170
02/28/1982,5.001,0.163
03/01/1982,5.001,0.155
03/02/1982,5.026,0.147
03/03/1982,5.161,0.166
03/04/1982,5.215,0.182
03/05/1982,5.279,0.197
03/06/1982,5.279,0.197
03/07/1982,5.279,0.194
03/08/1982,5.279,0.176
03/09/1982,5.279,0.162
03/10/1982,5.279,0.146
03/11/1982,5.280,0.138
03/12/1982,5.311,0.145
03/13/1982,5.312,0.146
03/14/1982,5.312,0.141
03/15/1982,5.518,0.163
03/16/1982,5.653,0.183
03/17/1982,5.715,0.219
03/18/1982,5.803,0.267
03/19/1982,5.845,0.277
03/20/1982,5.853,0.286
03/21/1982,5.853,0.286
03/22/1982,5.853,0.286
03/23/1982,5.853,0.286
03/24/1982,5.853,0.271
03/25/1982,5.853,0.239
03/26/1982,5.926,0.216
03/27/1982,5.972,0.211
03/28/1982,5.976,0.202
03/29/1982,6.042,0.212
03/30/1982,6.063,0.225
03/31/1982,6.065,0.223
04/01/1982,6.067,0.216
04/02/1982,6.218,0.291
04/03/1982,6.218,0.238
04/04/1982,6.230,0.226
04/05/1982,6.230,0.226
04/06/1982,6.237,0.227
04/07/1982,6.287,0.245
04/08/1982,6.287,0.246
04/09/1982,6.287,0.245
04/10/1982,6.287,0.236
04/11/1982,6.288,0.216
04/12/1982,6.368,0.203
04/13/1982,6.368,0.192
04/14/1982,6.368,0.173
04/15/1982,6.368,0.165
04/16/1982,6.368,0.165
04/17/1982,6.368,0.165
04/18/1982,6.368,0.161
04/19/1982,6.368,0.161
04/20/1982,6.368,0.161
04/21/1982,6.368,0.161
04/22/1982,6.368,0.161
04/23/1982,6.368,0.154
04/24/1982,6.368,0.142
04/25/1982,6.368,0.128
04/26/1982,6.368,0.113
04/27/1982,6.368,0.102
04/28/1982,6.369,0.093
04/29/1982,6.431,0.083
04/30/1982,6.432,0.082
05/01/1982,6.433,0.074
05/02/1982,6.532,0.060
05/03/1982,6.585,0.048
05/04/1982,6.673,0.045
05/05/1982,6.673,0.045
05/06/1982,6.673,0.045
05/07/1982,6.673,0.043
05/08/1982,6.673,0.038
05/09/1982,6.774,0.038
05/10/1982,7.364,0.057
05/11/1982,7.503,0.067
05/12/1982,7.503,0.062
05/13/1982,7.503,0.056
05/14/1982,7.503,0.046
05/15/1982,7.503,0.040
05/16/1982,7.505,0.037
05/17/1982,7.507,0.034
05/18/1982,7.510,0.030
05/19/1982,7.707,0.030
05/20/1982,7.707,0.030
05/21/1982,7.707,0.028
05/22/1982,7.707,0.023
05/23/1982,7.707,0.019
05/24/1982,7.707,0.017
05/25/1982,7.707,0.015
05/26/1982,7.707,0.012
05/27/1982,7.707,0.010
05/28/1982,7.886,0.009
05/29/1982,7.886,0.009
05/30/1982,7.888,0.009
05/31/1982,7.888,0.009
06/01/1982,7.910,0.008
06/02/1982,7.945,0.007
06/03/1982,7.976,0.006
06/04/1982,7.977,0.005
06/05/1982,8.068,0.005
06/06/1982,8.090,0.005
06/07/1982,8.090,0.004
06/08/1982,8.090,0.004
06/09/1982,8.090,0.003
06/10/1982,8.090,0.003
06/11/1982,8.090,0.002
06/12/1982,8.090,0.001
06/13/1982,8.090,0.001
06/14/1982,8.097,0.000
06/15/1982,8.100,0.000
06/16/1982,8.100,0.000
06/17/1982,8.100,0.000
06/18/1982,8.144,0.000
06/19/1982,8.144,0.000
06/20/1982,8.147,0.000
06/21/1982,8.194,0.000
06/22/1982,8.233,0.000
06/23/1982,8.236,0.000
06/24/1982,8.240,0.000
06/25/1982,8.240,0.000
06/26/1982,8.240,0.000
06/27/1982,8.240,0.000
06/28/1982,8.240,0.000
06/29/1982,8.240,0.000
06/30/1982,8.240,0.000
07/01/1982,8.252,0.000
07/02/1982,8.252,0.000
07/03/1982,8.252,0.000
07/04/1982,8.253,0.000
07/05/1982,8.680,0.000
07/06/1982,8.716,0.000
07/07/1982,8.716,0.000
07/08/1982,8.775,0.000
07/09/1982,9.028,0.000
07/10/1982,9.028,0.000
07/11/1982,9.028,0.000
07/12/1982,9.028,0.000
07/13/1982,9.028,0.000
07/14/1982,9.028,0.000
07/15/1982,9.048,0.000
07/16/1982,9.048,0.000
07/17/1982,9.048,0.000
07/18/1982,9.048,0.000
07/19/1982,9.048,0.000
07/20/1982,9.048,0.000
07/21/1982,9.048,0.000
07/22/1982,9.048,0.000
07/23/1982,9.081,0.000
07/24/1982,9.120,0.000
07/25/1982,9.175,0.000
07/26/1982,9.198,0.000
07/27/1982,9.251,0.000
07/28/1982,9.396,0.000
07/29/1982,9.421,0.000
07/30/1982,9.423,0.000
07/31/1982,9.423,0.000
08/01/1982,9.424,0.000
08/02/1982,9.428,0.000
08/03/1982,9.429,0.000
08/04/1982,9.429,0.000
08/05/1982,9.429,0.000
08/06/1982,9.429,0.000
08/07/1982,9.430,0.000
08/08/1982,9.458,0.000
08/09/1982,9.475,0.000
08/10/1982,9.475,0.000
08/11/1982,9.475,0.000
08/12/1982,9.475,0.000
08/13/1982,9.504,0.000
08/14/1982,9.515,0.000
08/15/1982,9.515,0.000
08/16/1982,9.515,0.000
08/17/1982,9.523,0.000
08/18/1982,9.645,0.000
08/19/1982,9.645,0.000
08/20/1982,9.645,0.000
08/21/1982,9.646,0.000
08/22/1982,9.646,0.000
08/23/1982,9.646,0.000
08/24/1982,9.646,0.000
08/25/1982,9.646,0.000
08/26/1982,9.646,0.000
08/27/1982,9.732,0.000
08/28/1982,9.840,0.000
08/29/1982,10.057,0.000
08/30/1982,10.160,0.000
08/31/1982,10.160,0.000
09/01/1982,10.160,0.000
09/02/1982,10.160,0.000
09/03/1982,10.160,0.000
09/04/1982,10.160,0.000
09/05/1982,10.160,0.000
09/06/1982,10.161,0.000
09/07/1982,10.184,0.000
09/08/1982,10.184,0.000
09/09/1982,10.187,0.000
09/10/1982,10.303,0.000
09/11/1982,10.453,0.000
09/12/1982,10.475,0.000
09/13/1982,10.734,0.000
09/14/1982,10.823,0.001
09/15/1982,11.035,0.002
09/16/1982,11.097,0.001
09/17/1982,11.125,0.000
09/18/1982,11.125,0.000
09/19/1982,11.159,0.000
09/20/1982,11.184,0.000
09/21/1982,11.184,0.000
09/22/1982,11.184,0.000
09/23/1982,11.184,0.000
09/24/1982,11.184,0.000
09/25/1982,11.339,0.000
09/26/1982,11.586,0.000
09/27/1982,13.225,0.001
09/28/1982,13.606,0.012
09/29/1982,13.931,0.023
09/30/1982,14.637,0.123
10/01/1982,0.065,0.107
10/02/1982,0.084,0.064
10/03/1982,0.084,0.035
10/04/1982,0.084,0.023
10/05/1982,0.338,0.018
10/06/1982,0.338,0.017
10/07/1982,0.338,0.015
10/08/1982,0.341,0.015
10/09/1982,0.342,0.016
10/10/1982,0.342,0.016
10/11/1982,0.342,0.015
10/12/1982,0.342,0.014
10/13/1982,0.342,0.011
10/14/1982,0.342,0.008
10/15/1982,0.342,0.006
10/16/1982,0.342,0.004
10/17/1982,0.342,0.003
10/18/1982,0.342,0.002
10/19/1982,0.342,0.002
10/20/1982,0.342,0.002
10/21/1982,0.342,0.002
10/22/1982,0.342,0.002
10/23/1982,0.342,0.002
10/24/1982,0.343,0.002
10/25/1982,0.420,0.002
10/26/1982,0.516,0.002
10/27/1982,1.051,0.013
10/28/1982,1.051,0.013
10/29/1982,1.061,0.014
10/30/1982,1.175,0.013
10/31/1982,1.429,0.019
11/01/1982,1.431,0.018
11/02/1982,1.432,0.019
11/03/1982,1.432,0.019
11/04/1982,1.432,0.019
11/05/1982,1.432,0.017
11/06/1982,1.432,0.015
11/07/1982,1.432,0.014
11/08/1982,1.432,0.013
11/09/1982,1.433,0.013
11/10/1982,1.476,0.022
11/11/1982,1.478,0.024
11/12/1982,1.478,0.024
11/13/1982,1.478,0.023
11/14/1982,1.478,0.023
11/15/1982,1.478,0.023
11/16/1982,1.478,0.024
11/17/1982,1.478,0.022
11/18/1982,1.478,0.020
11/19/1982,1.733,0.041
11/20/1982,1.733,0.041
11/21/1982,1.733,0.041
11/22/1982,1.733,0.041
11/23/1982,1.734,0.042
11/24/1982,1.734,0.042
11/25/1982,1.734,0.042
11/26/1982,1.734,0.042
11/27/1982,1.734,0.042
11/28/1982,1.737,0.042
11/29/1982,1.843,0.052
11/30/1982,2.026,0.073
12/01/1982,2.568,0.334
12/02/1982,2.638,0.367
12/03/1982,2.638,0.367
12/04/1982,2.638,0.367
12/05/1982,2.638,0.367
12/06/1982,2.638,0.360
12/07/1982,2.673,0.376
12/08/1982,2.758,0.427
12/09/1982,2.758,0.427
12/10/1982,2.765,0.438
12/11/1982,2.765,0.438
12/12/1982,2.765,0.438
12/13/1982,2.836,0.484
12/14/1982,2.851,0.496
12/15/1982,2.885,0.516
12/16/1982,2.885,0.478
12/17/1982,2.885,0.402
12/18/1982,2.885,0.373
12/19/1982,2.885,0.373
12/20/1982,2.885,0.373
12/21/1982,2.885,0.344
12/22/1982,2.899,0.293
12/23/1982,2.945,0.314
12/24/1982,2.954,0.328
12/25/1982,2.954,0.328
12/26/1982,2.954,0.328
12/27/1982,2.955,0.329
12/28/1982,2.955,0.329
12/29/1982,2.955,0.329
12/30/1982,2.955,0.329
12/31/1982,2.955,0.329
01/01/1983,2.955,0.329
01/02/1983,2.955,0.329
01/03/1983,2.955,0.329
01/04/1983,2.955,0.329
01/05/1983,2.955,0.322
01/06/1983,2.955,0.293
01/07/1983,2.956,0.262
01/08/1983,2.956,0.244
01/09/1983,2.956,0.229
01/10/1983,2.956,0.229
01/11/1983,2.956,0.228
01/12/1983,2.956,0.228
01/13/1983,2.956,0.225
01/14/1983,2.956,0.220
01/15/1983,2.956,0.216
01/16/1983,2.956,0.213
01/17/1983,3.130,0.405
01/18/1983,3.142,0.409
01/19/1983,3.142,0.396
01/20/1983,3.349,0.635
01/21/1983,3.355,0.644
01/22/1983,3.369,0.661
01/23/1983,3.412,0.726
01/24/1983,3.414,0.728
01/25/1983,3.528,0.778
01/26/1983,3.528,0.723
01/27/1983,3.528,0.630
01/28/1983,3.614,0.540
01/29/1983,3.614,0.495
01/30/1983,3.778,0.645
01/31/1983,3.778,0.646
02/01/1983,3.778,0.646
02/02/1983,3.778,0.646
02/03/1983,3.778,0.646
02/04/1983,3.778,0.646
02/05/1983,3.780,0.647
02/06/1983,3.780,0.647
02/07/1983,3.820,0.604
02/08/1983,3.911,0.507
02/09/1983,3.924,0.473
02/10/1983,3.924,0.422
02/11/1983,3.926,0.413
02/12/1983,3.926,0.394
02/13/1983,3.995,0.355
02/14/1983,4.059,0.382
02/15/1983,4.059,0.380
02/16/1983,4.059,0.375
02/17/1983,4.059,0.365
02/18/1983,4.059,0.337
02/19/1983,4.098,0.328
02/20/1983,4.098,0.329
02/21/1983,4.098,0.327
02/22/1983,4.098,0.319
02/23/1983,4.098,0.312
02/24/1983,4.098,0.298
02/25/1983,4.113,0.282
02/26/1983,4.119,0.276
02/27/1983,4.313,0.306
02/28/1983,4.709,0.343
03/01/1983,4.725,0.343
03/02/1983,4.734,0.336
03/03/1983,4.808,0.331
03/04/1983,4.828,0.329
03/05/1983,4.875,0.332
03/06/1983,4.875,0.328
03/07/1983,4.904,0.327
03/08/1983,4.931,0.325
03/09/1983,4.931,0.318
03/10/1983,4.931,0.301
03/11/1983,4.967,0.277
03/12/1983,4.982,0.268
03/13/1983,4.994,0.256
03/14/1983,5.119,0.252
03/15/1983,5.119,0.253
03/16/1983,5.119,0.253
03/17/1983,5.184,0.257
03/18/1983,5.344,0.289
03/19/1983,5.426,0.298
03/20/1983,5.443,0.305
03/21/1983,5.443,0.301
03/22/1983,5.470,0.306
03/23/1983,5.580,0.319
03/24/1983,5.659,0.341
03/25/1983,5.876,0.422
03/26/1983,5.889,0.395
03/27/1983,5.891,0.385
03/28/1983,6.030,0.387
03/29/1983,6.030,0.384
03/30/1983,6.038,0.359
03/31/1983,6.167,0.330
04/01/1983,6.240,0.339
04/02/1983,6.247,0.335
04/03/1983,6.294,0.334
04/04/1983,6.354,0.382
04/05/1983,6.354,0.382
04/06/1983,6.354,0.382
04/07/1983,6.354,0.382
04/08/1983,6.354,0.354
04/09/1983,6.354,0.344
04/10/1983,6.354,0.323
04/11/1983,6.601,0.330
04/12/1983,6.684,0.367
04/13/1983,6.714,0.380
04/14/1983,6.715,0.381
04/15/1983,6.715,0.380
04/16/1983,6.715,0.367
04/17/1983,6.715,0.349
04/18/1983,6.729,0.325
04/19/1983,6.743,0.317
04/20/1983,6.744,0.297
04/21/1983,6.864,0.290
04/22/1983,7.071,0.294
04/23/1983,7.071,0.283
04/24/1983,7.073,0.260
04/25/1983,7.198,0.252
04/26/1983,7.234,0.256
04/27/1983,7.261,0.257
04/28/1983,7.303,0.254
04/29/1983,7.349,0.248
04/30/1983,7.449,0.248
05/01/1983,7.691,0.265
05/02/1983,7.901,0.272
05/03/1983,7.970,0.275
05/04/1983,7.973,0.268
05/05/1983,7.980,0.258
05/06/1983,7.984,0.255
05/07/1983,7.984,0.253
05/08/1983,7.984,0.238
05/09/1983,7.984,0.229
05/10/1983,8.002,0.230
05/11/1983,8.058,0.236
05/12/1983,8.088,0.240
05/13/1983,8.088,0.235
05/14/1983,8.088,0.234
05/15/1983,8.088,0.233
05/16/1983,8.280,0.239
05/17/1983,8.319,0.242
05/18/1983,8.348,0.238
05/19/1983,8.360,0.234
05/20/1983,8.361,0.230
05/21/1983,8.361,0.221
05/22/1983,8.361,0.203
05/23/1983,8.361,0.187
05/24/1983,8.361,0.163
05/25/1983,8.361,0.137
05/26/1983,8.361,0.113
05/27/1983,8.361,0.091
05/28/1983,8.361,0.072
05/29/1983,8.361,0.056
05/30/1983,8.361,0.044
05/31/1983,8.399,0.038
06/01/1983,8.471,0.034
06/02/1983,8.816,0.033
06/03/1983,8.847,0.032
06/04/1983,8.895,0.029
06/05/1983,9.078,0.027
06/06/1983,9.078,0.025
06/07/1983,9.082,0.022
06/08/1983,9.107,0.019
06/09/1983,9.130,0.016
06/10/1983,9.139,0.015
06/11/1983,9.188,0.011
06/12/1983,9.382,0.012
06/13/1983,9.419,0.012
06/14/1983,9.419,0.012
06/15/1983,9.419,0.010
06/16/1983,9.419,0.008
06/17/1983,9.419,0.007
06/18/1983,9.419,0.005
06/19/1983,9.419,0.004
06/20/1983,9.419,0.004
06/21/1983,9.419,0.003
06/22/1983,9.419,0.002
06/23/1983,9.419,0.001
06/24/1983,9.419,0.001
06/25/1983,9.419,0.000
06/26/1983,9.419,0.000
06/27/1983,9.419,0.000
06/28/1983,9.419,0.000
06/29/1983,9.425,0.000
06/30/1983,9.425,0.000
07/01/1983,9.425,0.000
07/02/1983,9.425,0.000
07/03/1983,9.425,0.000
07/04/1983,9.425,0.000
07/05/1983,9.425,0.000
07/06/1983,9.426,0.000
07/07/1983,9.426,0.000
07/08/1983,9.426,0.000
07/09/1983,9.433,0.000
07/10/1983,9.487,0.000
07/11/1983,9.487,0.000
07/12/1983,9.487,0.000
07/13/1983,9.487,0.000
07/14/1983,9.487,0.000
07/15/1983,9.518,0.000
07/16/1983,9.518,0.000
07/17/1983,9.518,0.000
07/18/1983,9.518,0.000
07/19/1983,9.518,0.000
07/20/1983,9.518,0.000
07/21/1983,9.518,0.000
07/22/1983,9.567,0.000
07/23/1983,9.776,0.000
07/24/1983,9.776,0.000
07/25/1983,9.784,0.000
07/26/1983,9.786,0.000
07/27/1983,9.786,0.000
07/28/1983,9.786,0.000
07/29/1983,9.786,0.000
07/30/1983,9.786,0.000
07/31/1983,9.891,0.000
08/01/1983,10.196,0.000
08/02/1983,10.357,0.000
08/03/1983,10.390,0.000
08/04/1983,10.434,0.000
08/05/1983,10.434,0.000
08/06/1983,10.435,0.000
08/07/1983,10.439,0.000
08/08/1983,10.462,0.000
08/09/1983,10.574,0.000
08/10/1983,10.596,0.000
08/11/1983,10.629,0.000
08/12/1983,10.715,0.000
08/13/1983,10.717,0.000
08/14/1983,10.718,0.000
08/15/1983,10.880,0.000
08/16/1983,11.089,0.000
08/17/1983,11.434,0.000
08/18/1983,12.180,0.000
08/19/1983,12.740,0.000
08/20/1983,12.793,0.000
08/21/1983,12.898,0.000
08/22/1983,12.914,0.000
08/23/1983,12.914,0.000
08/24/1983,12.914,0.000
08/25/1983,12.914,0.000
08/26/1983,12.914,0.000
08/27/1983,12.914,0.000
08/28/1983,12.916,0.000
08/29/1983,12.929,0.000
08/30/1983,12.929,0.000
08/31/1983,12.929,0.000
09/01/1983,12.929,0.000
09/02/1983,12.951,0.000
09/03/1983,13.033,0.000
09/04/1983,13.241,0.000
09/05/1983,13.241,0.000
09/06/1983,13.242,0.000
09/07/1983,13.242,0.000
09/08/1983,13.243,0.000
09/09/1983,13.243,0.000
09/10/1983,13.243,0.000
09/11/1983,13.243,0.000
09/12/1983,13.243,0.000
09/13/1983,13.243,0.000
09/14/1983,13.243,0.000
09/15/1983,13.243,0.000
09/16/1983,13.243,0.000
09/17/1983,13.243,0.000
09/18/1983,13.243,0.000
09/19/1983,13.243,0.000
09/20/1983,13.244,0.000
09/21/1983,13.244,0.000
09/22/1983,13.244,0.000
09/23/1983,13.247,0.000
09/24/1983,13.279,0.000
09/25/1983,13.279,0.000
09/26/1983,13.279,0.000
09/27/1983,13.487,0.000
09/28/1983,13.642,0.000
09/29/1983,13.682,0.000
09/30/1983,13.948,0.000
10/01/1983,0.085,0.000
10/02/1983,0.191,0.000
10/03/1983,0.260,0.000
10/04/1983,0.260,0.000
10/05/1983,0.260,0.000
10/06/1983,0.260,0.000
10/07/1983,0.260,0.000
10/08/1983,0.261,0.000
10/09/1983,0.261,0.000
10/10/1983,0.436,0.000
10/11/1983,0.436,0.000
10/12/1983,0.436,0.000
10/13/1983,0.457,0.000
10/14/1983,0.516,0.000
10/15/1983,0.516,0.000
10/16/1983,0.516,0.000
10/17/1983,0.516,0.000
10/18/1983,0.516,0.000
10/19/1983,0.516,0.000
10/20/1983,0.516,0.000
10/21/1983,0.516,0.000
10/22/1983,0.517,0.000
10/23/1983,0.532,0.000
10/24/1983,0.620,0.000
10/25/1983,0.620,0.000
10/26/1983,0.620,0.000
10/27/1983,0.620,0.000
10/28/1983,0.620,0.000
10/29/1983,0.620,0.000
10/30/1983,0.621,0.000
10/31/1983,0.777,0.000
11/01/1983,0.780,0.000
11/02/1983,0.780,0.000
11/03/1983,0.780,0.000
11/04/1983,0.780,0.000
11/05/1983,0.780,0.000
11/06/1983,0.780,0.000
11/07/1983,0.800,0.000
11/08/1983,1.052,0.007
11/09/1983,1.056,0.011
11/10/1983,1.056,0.009
11/11/1983,1.056,0.004
11/12/1983,1.118,0.005
11/13/1983,1.146,0.005
11/14/1983,1.197,0.007
11/15/1983,1.197,0.007
11/16/1983,1.197,0.006
11/17/1983,1.198,0.004
11/18/1983,1.349,0.015
11/19/1983,1.353,0.019
11/20/1983,1.533,0.082
11/21/1983,1.735,0.178
11/22/1983,1.773,0.226
11/23/1983,1.786,0.238
11/24/1983,1.786,0.240
11/25/1983,1.931,0.335
11/26/1983,2.039,0.398
11/27/1983,2.039,0.398
11/28/1983,2.039,0.397
11/29/1983,2.043,0.405
11/30/1983,2.051,0.408
12/01/1983,2.071,0.433
12/02/1983,2.210,0.474
12/03/1983,2.245,0.496
12/04/1983,2.374,0.524
12/05/1983,2.406,0.554
12/06/1983,2.407,0.556
12/07/1983,2.423,0.522
12/08/1983,2.425,0.430
12/09/1983,2.425,0.398
12/10/1983,2.425,0.357
12/11/1983,2.425,0.328
12/12/1983,2.429,0.310
12/13/1983,2.446,0.319
12/14/1983,2.553,0.337
12/15/1983,2.856,0.386
12/16/1983,2.856,0.386
12/17/1983,2.873,0.406
12/18/1983,2.873,0.406
12/19/1983,2.882,0.420
12/20/1983,2.957,0.498
12/21/1983,2.960,0.502
12/22/1983,3.035,0.592
12/23/1983,3.174,0.725
12/24/1983,3.342,0.919
12/25/1983,3.589,1.151
12/26/1983,3.793,1.374
12/27/1983,4.056,1.682
12/28/1983,4.140,1.828
12/29/1983,4.141,1.831
12/30/1983,4.152,1.850
12/31/1983,4.169,1.862
01/01/1984,4.169,1.862
01/02/1984,4.169,1.862
01/03/1984,4.170,1.863
01/04/1984,4.170,1.863
01/05/1984,4.170,1.861
01/06/1984,4.170,1.861
01/07/1984,4.170,1.861
01/08/1984,4.170,1.861
01/09/1984,4.170,1.861
01/10/1984,4.170,1.861
01/11/1984,4.321,2.086
01/12/1984,4.322,2.086
01/13/1984,4.323,2.090
01/14/1984,4.375,2.160
01/15/1984,4.407,2.212
01/16/1984,4.407,2.212
01/17/1984,4.408,2.213
01/18/1984,4.408,2.213
01/19/1984,4.408,2.213
01/20/1984,4.408,2.213
01/21/1984,4.414,2.220
01/22/1984,4.415,2.221
01/23/1984,4.439,2.251
01/24/1984,4.440,2.251
01/25/1984,4.443,2.178
01/26/1984,4.522,2.270
01/27/1984,4.522,2.270
01/28/1984,4.522,2.270
01/29/1984,4.522,2.270
01/30/1984,4.522,2.270
01/31/1984,4.522,2.270
02/01/1984,4.522,2.270
02/02/1984,4.522,2.270
02/03/1984,4.522,2.270
02/04/1984,4.522,2.270
02/05/1984,4.522,2.270
02/06/1984,4.522,2.270
02/07/1984,4.522,2.270
02/08/1984,4.522,2.270
02/09/1984,4.522,2.270
02/10/1984,4.581,2.328
02/11/1984,4.630,2.360
02/12/1984,4.630,2.360
02/13/1984,4.639,2.363
02/14/1984,4.694,2.200
02/15/1984,4.697,2.205
02/16/1984,4.713,2.235
02/17/1984,4.991,2.722
02/18/1984,4.994,2.729
02/19/1984,4.994,2.729
02/20/1984,4.994,2.729
02/21/1984,4.994,2.729
02/22/1984,4.997,2.734
02/23/1984,4.997,2.734
02/24/1984,4.997,2.734
02/25/1984,4.999,2.737
02/26/1984,5.001,2.739
02/27/1984,5.002,2.740
02/28/1984,5.002,2.740
02/29/1984,5.002,2.740
03/01/1984,5.002,2.739
03/02/1984,5.002,2.725
03/03/1984,5.002,2.722
03/04/1984,5.002,2.721
03/05/1984,5.002,2.721
03/06/1984,5.002,2.721
03/07/1984,5.002,2.719
03/08/1984,5.002,2.462
03/09/1984,5.002,2.197
03/10/1984,5.002,1.902
03/11/1984,5.030,1.699
03/12/1984,5.034,1.404
03/13/1984,5.034,1.134
03/14/1984,5.070,0.833
03/15/1984,5.153,0.747
03/16/1984,5.258,0.714
03/17/1984,5.305,0.703
03/18/1984,5.413,0.752
03/19/1984,5.413,0.746
03/20/1984,5.413,0.723
03/21/1984,5.414,0.661
03/22/1984,5.430,0.640
03/23/1984,5.437,0.640
03/24/1984,5.437,0.622
03/25/1984,5.520,0.608
03/26/1984,5.663,0.659
03/27/1984,5.777,0.676
03/28/1984,5.778,0.678
03/29/1984,5.788,0.677
03/30/1984,6.132,0.811
03/31/1984,6.145,0.769
04/01/1984,6.541,0.892
04/02/1984,6.718,0.930
04/03/1984,6.727,0.934
04/04/1984,6.727,0.893
04/05/1984,6.727,0.784
04/06/1984,6.739,0.675
04/07/1984,6.838,0.656
04/08/1984,6.838,0.640
04/09/1984,6.905,0.610
04/10/1984,6.909,0.607
04/11/1984,7.027,0.605
04/12/1984,7.035,0.605
04/13/1984,7.035,0.580
04/14/1984,7.035,0.551
04/15/1984,7.035,0.508
04/16/1984,7.035,0.444
04/17/1984,7.035,0.356
04/18/1984,7.035,0.301
04/19/1984,7.306,0.274
04/20/1984,7.506,0.295
04/21/1984,7.506,0.290
04/22/1984,7.506,0.282
04/23/1984,7.506,0.265
04/24/1984,7.506,0.245
04/25/1984,7.512,0.240
04/26/1984,7.610,0.287
04/27/1984,7.721,0.307
04/28/1984,7.722,0.300
04/29/1984,7.722,0.268
04/30/1984,7.765,0.255
05/01/1984,7.884,0.254
05/02/1984,7.949,0.252
05/03/1984,7.964,0.242
05/04/1984,7.980,0.226
05/05/1984,7.981,0.214
05/06/1984,7.981,0.212
05/07/1984,7.986,0.213
05/08/1984,7.986,0.210
05/09/1984,7.986,0.179
05/10/1984,7.986,0.142
05/11/1984,7.986,0.109
05/12/1984,7.987,0.085
05/13/1984,7.987,0.062
05/14/1984,7.988,0.040
05/15/1984,7.994,0.030
05/16/1984,7.995,0.028
05/17/1984,7.995,0.027
05/18/1984,7.995,0.025
05/19/1984,7.995,0.021
05/20/1984,7.995,0.016
05/21/1984,7.995,0.010
05/22/1984,7.995,0.008
05/23/1984,7.995,0.006
05/24/1984,7.995,0.003
05/25/1984,7.995,0.002
05/26/1984,7.995,0.002
05/27/1984,7.995,0.001
05/28/1984,7.995,0.001
05/29/1984,7.995,0.000
05/30/1984,7.995,0.000
05/31/1984,8.167,0.000
06/01/1984,8.257,0.000
06/02/1984,8.257,0.000
06/03/1984,8.261,0.000
06/04/1984,8.262,0.000
06/05/1984,8.351,0.000
06/06/1984,8.659,0.000
06/07/1984,9.076,0.001
06/08/1984,9.167,0.001
06/09/1984,9.184,0.001
06/10/1984,9.229,0.002
06/11/1984,9.229,0.001
06/12/1984,9.229,0.001
06/13/1984,9.229,0.000
06/14/1984,9.229,0.000
06/15/1984,9.265,0.000
06/16/1984,9.278,0.000
06/17/1984,9.301,0.000
06/18/1984,9.331,0.000
06/19/1984,9.426,0.000
06/20/1984,9.426,0.000
06/21/1984,9.426,0.000
06/22/1984,9.426,0.000
06/23/1984,9.426,0.000
06/24/1984,9.426,0.000
06/25/1984,9.426,0.000
06/26/1984,9.426,0.000
06/27/1984,9.426,0.000
06/28/1984,9.426,0.000
06/29/1984,9.452,0.000
06/30/1984,9.474,0.000
07/01/1984,9.474,0.000
07/02/1984,9.474,0.000
07/03/1984,9.474,0.000
07/04/1984,9.474,0.000
07/05/1984,9.474,0.000
07/06/1984,9.477,0.000
07/07/1984,9.486,0.000
07/08/1984,9.498,0.000
07/09/1984,9.550,0.000
07/10/1984,9.555,0.000
07/11/1984,9.555,0.000
07/12/1984,9.555,0.000
07/13/1984,9.557,0.000
07/14/1984,9.557,0.000
07/15/1984,9.557,0.000
07/16/1984,9.557,0.000
07/17/1984,9.557,0.000
07/18/1984,9.557,0.000
07/19/1984,9.561,0.000
07/20/1984,9.565,0.000
07/21/1984,9.657,0.000
07/22/1984,10.132,0.000
07/23/1984,10.157,0.000
07/24/1984,10.157,0.000
07/25/1984,10.278,0.000
07/26/1984,10.408,0.000
07/27/1984,10.541,0.000
07/28/1984,10.839,0.000
07/29/1984,11.059,0.000
07/30/1984,11.158,0.000
07/31/1984,11.162,0.000